TimeCDT,TemperatureF,Dew PointF,Humidity,Sea Level PressureIn,VisibilityMPH,Wind Direction,Wind SpeedMPH,Gust SpeedMPH,PrecipitationIn,Events,Conditions,WindDirDegrees,DateUTC
12:58 AM,79.5,72.9,80,29.96,10.0,South,3.5,-,N/A,,Scattered Clouds,180,2013-07-11 05:58:00
1:58 AM,83.8,71.6,66,29.99,10.0,NNW,6.9,-,N/A,,Overcast,340,2013-07-11 06:58:00
2:58 AM,80.6,70.3,71,29.99,10.0,North,2.3,-,N/A,,Clear,360,2013-07-11 07:58:00
3:58 AM,80.6,70.3,71,29.98,10.0,SSW,3.5,-,N/A,,Clear,200,2013-07-11 08:58:00
4:58 AM,81.0,71.1,72,29.96,10.0,SW,6.9,-,N/A,,Partly Cloudy,220,2013-07-11 09:58:00
5:58 AM,78.6,73.2,83,29.99,10.0,SE,5.8,-,N/A,,Overcast,140,2013-07-11 10:58:00
6:58 AM,81.3,72.0,73,29.98,10.0,SW,6.9,-,N/A,,Mostly Cloudy,220,2013-07-11 11:58:00
7:58 AM,81.5,72.3,74,29.99,10.0,SW,3.5,-,N/A,,Mostly Cloudy,230,2013-07-11 12:58:00
8:58 AM,82.9,72.5,71,29.99,10.0,SW,8.1,-,N/A,,Mostly Cloudy,230,2013-07-11 13:58:00
9:58 AM,82.9,72.5,71,30.01,10.0,WSW,5.8,-,N/A,,Scattered Clouds,240,2013-07-11 14:58:00
10:19 AM,84.2,73.4,70,30.00,10.0,SW,5.8,-,N/A,,Light Drizzle,230,2013-07-11 15:19:00
10:38 AM,84.2,73.4,70,30.00,10.0,Calm,Calm,-,N/A,,Overcast,0,2013-07-11 15:38:00
10:58 AM,84.4,73.2,69,30.01,10.0,Variable,3.5,-,0.00,,Mostly Cloudy,0,2013-07-11 15:58:00
11:02 AM,84.2,73.4,70,30.00,10.0,Calm,Calm,-,N/A,Rain,Light Rain Showers,0,2013-07-11 16:02:00
11:36 AM,84.2,75.2,74,30.00,10.0,West,3.5,-,N/A,,Overcast,280,2013-07-11 16:36:00
11:43 AM,84.2,75.2,74,29.99,10.0,West,4.6,-,N/A,Rain,Light Rain Showers,260,2013-07-11 16:43:00
11:58 AM,83.8,74.7,74,30.00,10.0,SW,3.5,-,0.03,,Overcast,230,2013-07-11 16:58:00
12:58 PM,85.8,75.0,70,30.00,10.0,SSE,2.3,-,0.00,,Mostly Cloudy,150,2013-07-11 17:58:00
1:58 PM,87.8,75.6,67,29.98,10.0,South,8.1,-,N/A,,Mostly Cloudy,170,2013-07-11 18:58:00
2:58 PM,90.3,75.2,61,29.94,10.0,WSW,6.9,-,N/A,,Clear,250,2013-07-11 19:58:00
3:58 PM,92.1,74.8,57,29.91,10.0,South,6.9,-,N/A,,Clear,190,2013-07-11 20:58:00
4:58 PM,92.7,74.8,56,29.91,10.0,South,6.9,-,N/A,,Clear,180,2013-07-11 21:58:00
5:58 PM,89.8,75.6,63,29.91,10.0,South,9.2,-,N/A,,Partly Cloudy,170,2013-07-11 22:58:00
6:58 PM,89.4,73.8,60,29.91,10.0,South,5.8,-,N/A,,Scattered Clouds,190,2013-07-11 23:58:00
7:12 PM,89.6,73.4,59,29.91,10.0,SSW,6.9,-,N/A,Thunderstorm,Thunderstorm,210,2013-07-12 00:12:00
7:15 PM,89.6,73.4,59,29.91,10.0,SW,6.9,-,N/A,,Clear,230,2013-07-12 00:15:00
7:58 PM,83.5,70.3,64,29.91,10.0,West,9.2,-,N/A,,Scattered Clouds,280,2013-07-12 00:58:00
8:58 PM,79.2,71.1,76,29.93,10.0,ENE,5.8,-,N/A,,Mostly Cloudy,60,2013-07-12 01:58:00
9:08 PM,80.6,69.8,70,29.93,10.0,East,6.9,-,N/A,Thunderstorm,Thunderstorm,80,2013-07-12 02:08:00
9:09 PM,80.6,69.8,70,29.94,10.0,East,8.1,-,N/A,,Clear,80,2013-07-12 02:09:00
9:18 PM,80.6,69.8,70,29.99,10.0,East,31.1,44.9,N/A,,Partly Cloudy,100,2013-07-12 02:18:00
9:58 PM,73.0,67.3,82,29.98,10.0,SSE,10.4,20.7,0.00,,Overcast,160,2013-07-12 02:58:00
10:58 PM,75.0,64.4,69,29.94,10.0,Calm,Calm,-,N/A,,Partly Cloudy,0,2013-07-12 03:58:00
11:58 PM,72.0,65.8,81,29.94,10.0,Calm,Calm,-,N/A,,Clear,0,2013-07-12 04:58:00